| time (UTC) | temp F | wind direction | speed MPH | gust MPH | rain 1hr in | rain 24hr in | rain mn in | humidity % | barometer mb |
| 20260901162402 | 91 | 0.0 | 2.0 | 0.00 | 0.00 | 0.00 | 55 | 1017.7 | |
| 20260901161900 | 91 | 0.0 | 5.0 | 0.00 | 0.00 | 0.00 | 55 | 1017.7 | |
| 20260901161358 | 91 | 205 | 2.0 | 5.0 | 0.00 | 0.00 | 0.00 | 56 | 1017.7 |
| 20260901160856 | 90 | 0.0 | 4.0 | 0.00 | 0.00 | 0.00 | 56 | 1017.7 | |
| 20260901160352 | 90 | 205 | 1.0 | 4.0 | 0.00 | 0.00 | 0.00 | 57 | 1017.7 |
| 20260901155850 | 90 | 0.0 | 6.0 | 0.00 | 0.00 | 0.00 | 56 | 1017.9 | |
| 20260901155348 | 90 | 0.0 | 3.0 | 0.00 | 0.00 | 0.00 | 56 | 1017.8 | |
| 20260901154846 | 90 | 0.0 | 3.0 | 0.00 | 0.00 | 0.00 | 56 | 1017.8 | |
| 20260901154342 | 89 | 0.0 | 3.0 | 0.00 | 0.00 | 0.00 | 58 | 1017.7 | |
| 20260901153840 | 89 | 205 | 1.0 | 3.0 | 0.00 | 0.00 | 0.00 | 57 | 1017.7 |
| 20260901153338 | 89 | 0.0 | 4.0 | 0.00 | 0.00 | 0.00 | 61 | 1017.7 | |
| 20260901152836 | 88 | 0.0 | 4.0 | 0.00 | 0.00 | 0.00 | 60 | 1017.6 | |
| 20260901152332 | 87 | 0.0 | 2.0 | 0.00 | 0.00 | 0.00 | 61 | 1017.6 | |
| 20260901151830 | 87 | 0.0 | 3.0 | 0.00 | 0.00 | 0.00 | 64 | 1017.5 | |
| 20260901151328 | 86 | 0.0 | 3.0 | 0.00 | 0.00 | 0.00 | 63 | 1017.6 | |
| 20260901150826 | 86 | 0.0 | 2.0 | 0.00 | 0.00 | 0.00 | 65 | 1017.7 | |
| 20260901150322 | 85 | 0.0 | 2.0 | 0.00 | 0.00 | 0.00 | 67 | 1017.7 | |
| 20260901145820 | 85 | 0.0 | 2.0 | 0.00 | 0.00 | 0.00 | 69 | 1017.8 | |
| 20260901145318 | 84 | 0.0 | 2.0 | 0.00 | 0.00 | 0.00 | 70 | 1017.8 | |
| 20260901144816 | 84 | 0.0 | 3.0 | 0.00 | 0.00 | 0.00 | 72 | 1017.8 | |
| 20260901144313 | 84 | 205 | 1.0 | 3.0 | 0.00 | 0.00 | 0.00 | 71 | 1017.8 |
| 20260901143810 | 83 | 205 | 1.0 | 3.0 | 0.00 | 0.00 | 0.00 | 74 | 1017.8 |
| 20260901143308 | 83 | 205 | 1.0 | 3.0 | 0.00 | 0.00 | 0.00 | 75 | 1017.8 |
| 20260901142806 | 82 | 0.0 | 2.0 | 0.00 | 0.00 | 0.00 | 76 | 1017.8 | |
| 20260901142305 | 82 | 0.0 | 2.0 | 0.00 | 0.00 | 0.00 | 77 | 1017.8 | |
| 20260901141800 | 81 | 0.0 | 2.0 | 0.00 | 0.00 | 0.00 | 78 | 1017.8 | |
| 20260901141258 | 81 | 205 | 1.0 | 2.0 | 0.00 | 0.00 | 0.00 | 78 | 1017.9 |
| 20260901140756 | 81 | 0.0 | 0.0 | 0.00 | 0.00 | 0.00 | 79 | 1017.9 | |
| 20260901140252 | 80 | 0.0 | 2.0 | 0.00 | 0.00 | 0.00 | 80 | 1018.0 | |
| 20260901135750 | 80 | 205 | 1.0 | 3.0 | 0.00 | 0.00 | 0.00 | 81 | 1018.0 |
| 20260901135248 | 79 | 0.0 | 3.0 | 0.00 | 0.00 | 0.00 | 82 | 1018.0 | |
| 20260901134746 | 79 | 0.0 | 3.0 | 0.00 | 0.00 | 0.00 | 82 | 1017.9 | |
| 20260901134242 | 79 | 0.0 | 2.0 | 0.00 | 0.00 | 0.00 | 83 | 1017.9 | |
| 20260901133740 | 78 | 0.0 | 0.0 | 0.00 | 0.00 | 0.00 | 84 | 1017.9 | |
| 20260901133236 | 78 | 0.0 | 0.0 | 0.00 | 0.00 | 0.00 | 85 | 1017.9 | |
| 20260901132734 | 77 | 0.0 | 0.0 | 0.00 | 0.00 | 0.00 | 86 | 1017.9 | |
| 20260901132232 | 77 | 0.0 | 0.0 | 0.00 | 0.00 | 0.00 | 87 | 1017.8 | |
| 20260901131730 | 76 | 0.0 | 0.0 | 0.00 | 0.00 | 0.00 | 88 | 1017.8 | |
| 20260901131226 | 76 | 0.0 | 0.0 | 0.00 | 0.00 | 0.00 | 89 | 1017.7 | |
| 20260901130724 | 75 | 0.0 | 0.0 | 0.00 | 0.00 | 0.00 | 89 | 1017.6 | |
| 20260901130222 | 75 | 0.0 | 0.0 | 0.00 | 0.00 | 0.00 | 89 | 1017.5 | |
| 20260901125720 | 75 | 0.0 | 0.0 | 0.00 | 0.00 | 0.00 | 89 | 1017.4 | |
| 20260901125216 | 75 | 0.0 | 0.0 | 0.00 | 0.00 | 0.00 | 89 | 1017.4 | |
| 20260901124714 | 74 | 0.0 | 0.0 | 0.00 | 0.00 | 0.00 | 88 | 1017.3 | |
| 20260901124212 | 74 | 0.0 | 0.0 | 0.00 | 0.00 | 0.00 | 88 | 1017.3 | |
| 20260901123710 | 74 | 0.0 | 0.0 | 0.00 | 0.00 | 0.00 | 88 | 1017.3 | |
| 20260901123206 | 74 | 0.0 | 0.0 | 0.00 | 0.00 | 0.00 | 87 | 1017.2 | |
| 20260901122704 | 74 | 0.0 | 0.0 | 0.00 | 0.00 | 0.00 | 87 | 1017.1 | |
| 20260901122202 | 75 | 0.0 | 0.0 | 0.00 | 0.00 | 0.00 | 87 | 1017.0 | |
| 20260901121700 | 75 | 0.0 | 0.0 | 0.00 | 0.00 | 0.00 | 87 | 1017.0 | |
| 20260901121156 | 75 | 0.0 | 0.0 | 0.00 | 0.00 | 0.00 | 87 | 1016.9 | |
| 20260901120654 | 75 | 0.0 | 0.0 | 0.00 | 0.00 | 0.00 | 86 | 1016.9 | |
| 20260901120152 | 75 | 0.0 | 0.0 | 0.00 | 0.00 | 0.00 | 86 | 1016.9 | |
| 20260901115650 | 75 | 0.0 | 0.0 | 0.00 | 0.00 | 0.00 | 86 | 1017.0 | |
| 20260901115146 | 76 | 0.0 | 0.0 | 0.00 | 0.00 | 0.00 | 85 | 1016.9 | |
| 20260901114644 | 76 | 0.0 | 0.0 | 0.00 | 0.00 | 0.00 | 85 | 1016.9 | |
| 20260901114142 | 76 | 0.0 | 0.0 | 0.00 | 0.00 | 0.00 | 85 | 1016.9 | |
| 20260901113640 | 76 | 0.0 | 0.0 | 0.00 | 0.00 | 0.00 | 84 | 1016.9 | |
| 20260901113136 | 76 | 0.0 | 0.0 | 0.00 | 0.00 | 0.00 | 84 | 1016.9 | |
| 20260901112634 | 76 | 0.0 | 0.0 | 0.00 | 0.00 | 0.00 | 84 | 1016.9 | |
| 20260901112132 | 77 | 0.0 | 0.0 | 0.00 | 0.00 | 0.00 | 84 | 1016.8 | |
| 20260901111630 | 77 | 0.0 | 0.0 | 0.00 | 0.00 | 0.00 | 83 | 1016.9 | |
| 20260901111126 | 77 | 0.0 | 0.0 | 0.00 | 0.00 | 0.00 | 83 | 1016.8 | |
| 20260901110624 | 77 | 0.0 | 0.0 | 0.00 | 0.00 | 0.00 | 83 | 1016.8 | |
| 20260901110120 | 77 | 0.0 | 0.0 | 0.00 | 0.00 | 0.00 | 83 | 1016.7 | |
| 20260901105618 | 77 | 0.0 | 0.0 | 0.00 | 0.00 | 0.00 | 83 | 1016.7 | |
| 20260901105116 | 77 | 0.0 | 0.0 | 0.00 | 0.00 | 0.00 | 83 | 1016.8 | |
| 20260901104614 | 77 | 0.0 | 0.0 | 0.00 | 0.00 | 0.00 | 82 | 1016.7 | |
| 20260901104110 | 78 | 0.0 | 0.0 | 0.00 | 0.00 | 0.00 | 82 | 1016.8 | |
| 20260901103608 | 78 | 0.0 | 0.0 | 0.00 | 0.00 | 0.00 | 82 | 1016.9 | |
| 20260901103106 | 78 | 0.0 | 0.0 | 0.00 | 0.00 | 0.00 | 82 | 1016.8 | |
| 20260901102604 | 78 | 0.0 | 0.0 | 0.00 | 0.00 | 0.00 | 82 | 1016.7 | |
| 20260901102100 | 78 | 0.0 | 0.0 | 0.00 | 0.00 | 0.00 | 82 | 1016.6 | |
| 20260901101558 | 78 | 0.0 | 1.0 | 0.00 | 0.00 | 0.00 | 82 | 1016.6 | |
| 20260901101056 | 78 | 0.0 | 1.0 | 0.00 | 0.00 | 0.00 | 81 | 1016.5 | |
| 20260901100554 | 78 | 0.0 | 0.0 | 0.00 | 0.00 | 0.00 | 81 | 1016.5 | |
| 20260901100050 | 78 | 0.0 | 0.0 | 0.00 | 0.00 | 0.00 | 81 | 1016.6 | |
| 20260901095548 | 78 | 0.0 | 0.0 | 0.00 | 0.00 | 0.00 | 80 | 1016.7 | |
| 20260901095046 | 78 | 0.0 | 0.0 | 0.00 | 0.00 | 0.00 | 80 | 1016.6 | |
| 20260901094544 | 78 | 0.0 | 0.0 | 0.00 | 0.00 | 0.00 | 80 | 1016.6 | |
| 20260901094040 | 78 | 0.0 | 0.0 | 0.00 | 0.00 | 0.00 | 80 | 1016.7 | |
| 20260901093538 | 79 | 0.0 | 0.0 | 0.00 | 0.00 | 0.00 | 79 | 1016.8 | |
| 20260901093036 | 79 | 0.0 | 0.0 | 0.00 | 0.00 | 0.00 | 79 | 1016.8 | |
| 20260901092534 | 79 | 0.0 | 1.0 | 0.00 | 0.00 | 0.00 | 79 | 1016.8 | |
| 20260901092030 | 79 | 0.0 | 1.0 | 0.00 | 0.00 | 0.00 | 79 | 1016.8 | |
| 20260901091528 | 79 | 0.0 | 0.0 | 0.00 | 0.00 | 0.00 | 78 | 1016.8 | |
| 20260901091026 | 79 | 0.0 | 0.0 | 0.00 | 0.00 | 0.00 | 78 | 1016.8 | |
| 20260901090524 | 79 | 0.0 | 0.0 | 0.00 | 0.00 | 0.00 | 78 | 1016.8 | |
| 20260901090020 | 79 | 0.0 | 0.0 | 0.00 | 0.00 | 0.00 | 77 | 1016.7 | |
| 20260901085518 | 79 | 0.0 | 1.0 | 0.00 | 0.00 | 0.00 | 77 | 1016.7 | |
| 20260901085016 | 79 | 0.0 | 1.0 | 0.00 | 0.00 | 0.00 | 76 | 1016.6 | |
| 20260901084514 | 79 | 0.0 | 0.0 | 0.00 | 0.00 | 0.00 | 76 | 1016.5 | |
| 20260901084010 | 80 | 0.0 | 4.0 | 0.00 | 0.00 | 0.00 | 76 | 1016.5 | |
| 20260901083508 | 80 | 188 | 1.0 | 4.0 | 0.00 | 0.00 | 0.00 | 75 | 1016.5 |
| 20260901083004 | 80 | 0.0 | 0.0 | 0.00 | 0.00 | 0.00 | 75 | 1016.5 | |
| 20260901082502 | 80 | 0.0 | 0.0 | 0.00 | 0.00 | 0.00 | 75 | 1016.5 | |
| 20260901082000 | 80 | 0.0 | 0.0 | 0.00 | 0.00 | 0.00 | 74 | 1016.5 | |
| 20260901081458 | 80 | 0.0 | 0.0 | 0.00 | 0.00 | 0.00 | 74 | 1016.5 | |
| 20260901080954 | 80 | 0.0 | 0.0 | 0.00 | 0.00 | 0.00 | 73 | 1016.5 | |
| 20260901080452 | 80 | 0.0 | 0.0 | 0.00 | 0.00 | 0.00 | 73 | 1016.5 | |
| 20260901075950 | 80 | 0.0 | 0.0 | 0.00 | 0.00 | 0.00 | 73 | 1016.5 | |
| 20260901075448 | 80 | 0.0 | 0.0 | 0.00 | 0.00 | 0.00 | 72 | 1016.6 | |
| 20260901074944 | 81 | 0.0 | 0.0 | 0.00 | 0.00 | 0.00 | 72 | 1016.7 | |
| 20260901074442 | 81 | 0.0 | 0.0 | 0.00 | 0.00 | 0.00 | 72 | 1016.7 | |
| 20260901073940 | 81 | 0.0 | 0.0 | 0.00 | 0.00 | 0.00 | 72 | 1016.7 | |
| 20260901073438 | 81 | 0.0 | 0.0 | 0.00 | 0.00 | 0.00 | 72 | 1016.7 | |
| 20260901072934 | 81 | 0.0 | 2.0 | 0.00 | 0.00 | 0.00 | 71 | 1016.7 | |
| 20260901072431 | 81 | 0.0 | 2.0 | 0.00 | 0.00 | 0.00 | 71 | 1016.7 | |
| 20260901071930 | 81 | 0.0 | 2.0 | 0.00 | 0.00 | 0.00 | 71 | 1016.7 | |
| 20260901071427 | 81 | 0.0 | 1.0 | 0.00 | 0.00 | 0.00 | 71 | 1016.8 | |
| 20260901070923 | 81 | 0.0 | 2.0 | 0.00 | 0.00 | 0.00 | 71 | 1016.7 | |
| 20260901070421 | 81 | 0.0 | 2.0 | 0.00 | 0.00 | 0.00 | 71 | 1016.8 | |
| 20260901065919 | 82 | 0.0 | 0.0 | 0.00 | 0.00 | 0.00 | 70 | 1016.8 | |
| 20260901065417 | 82 | 0.0 | 0.0 | 0.00 | 0.00 | 0.00 | 70 | 1016.8 | |
| 20260901064913 | 82 | 0.0 | 3.0 | 0.00 | 0.00 | 0.00 | 70 | 1016.7 | |
| 20260901064411 | 82 | 0.0 | 3.0 | 0.00 | 0.00 | 0.00 | 70 | 1016.7 | |
| 20260901063909 | 82 | 0.0 | 4.0 | 0.00 | 0.00 | 0.00 | 69 | 1016.6 | |
| 20260901063407 | 82 | 188 | 1.0 | 4.0 | 0.00 | 0.00 | 0.00 | 69 | 1016.6 |
| 20260901062903 | 82 | 0.0 | 4.0 | 0.00 | 0.00 | 0.00 | 69 | 1016.4 | |
| 20260901061859 | 82 | 1.0 | 4.0 | 0.00 | 0.00 | 0.00 | 68 | 1016.4 | |
| 20260901061357 | 83 | 0.0 | 2.0 | 0.00 | 0.00 | 0.00 | 68 | 1016.3 | |
| 20260901060853 | 83 | 0.0 | 2.0 | 0.00 | 0.00 | 0.00 | 67 | 1016.4 | |
| 20260901060351 | 83 | 0.0 | 2.0 | 0.00 | 0.00 | 0.00 | 67 | 1016.3 | |
| 20260901055849 | 83 | 0.0 | 4.0 | 0.00 | 0.00 | 0.00 | 67 | 1016.3 | |
| 20260901055347 | 83 | 188 | 1.0 | 4.0 | 0.00 | 0.00 | 0.00 | 66 | 1016.3 |
| 20260901054843 | 83 | 0.0 | 4.0 | 0.00 | 0.00 | 0.00 | 66 | 1016.2 | |
| 20260901054341 | 83 | 0.0 | 3.0 | 0.00 | 0.00 | 0.00 | 66 | 1016.3 | |
| 20260901053837 | 84 | 0.0 | 4.0 | 0.00 | 0.00 | 0.00 | 66 | 1016.1 | |
| 20260901053335 | 84 | 0.0 | 2.0 | 0.00 | 0.00 | 0.00 | 65 | 1016.1 | |
| 20260901052833 | 84 | 0.0 | 4.0 | 0.00 | 0.00 | 0.00 | 65 | 1016.2 | |
| 20260901052331 | 84 | 0.0 | 7.0 | 0.00 | 0.00 | 0.00 | 65 | 1016.1 | |
| 20260901051827 | 84 | 188 | 2.0 | 7.0 | 0.00 | 0.00 | 0.00 | 64 | 1016.1 |
| 20260901051325 | 84 | 188 | 1.0 | 4.0 | 0.00 | 0.00 | 0.00 | 64 | 1016.0 |
| 20260901050823 | 84 | 0.0 | 4.0 | 0.00 | 0.00 | 0.00 | 64 | 1016.0 | |
| 20260901050321 | 85 | 0.0 | 4.0 | 0.00 | 0.00 | 0.00 | 63 | 1016.0 | |
| 20260901045817 | 85 | 188 | 2.0 | 5.0 | 0.00 | 0.00 | 0.00 | 63 | 1016.0 |
| 20260901045315 | 85 | 0.0 | 6.0 | 0.00 | 0.00 | 0.00 | 62 | 1016.0 | |
| 20260901044813 | 85 | 188 | 1.0 | 6.0 | 0.00 | 0.00 | 0.00 | 62 | 1016.0 |
| 20260901044311 | 85 | 1.0 | 5.0 | 0.00 | 0.00 | 0.00 | 62 | 1015.9 | |
| 20260901043807 | 85 | 188 | 1.0 | 5.0 | 0.00 | 0.00 | 0.00 | 61 | 1015.9 |
| 20260901043305 | 85 | 188 | 1.0 | 5.0 | 0.00 | 0.00 | 0.00 | 61 | 1015.8 |
| 20260901042803 | 86 | 0.0 | 4.0 | 0.00 | 0.00 | 0.00 | 61 | 1015.8 | |
| 20260901042301 | 86 | 188 | 1.0 | 4.0 | 0.00 | 0.00 | 0.00 | 60 | 1015.8 |
| 20260901041757 | 86 | 0.0 | 7.0 | 0.00 | 0.00 | 0.00 | 60 | 1015.8 | |
| 20260901041255 | 86 | 188 | 2.0 | 7.0 | 0.00 | 0.00 | 0.00 | 60 | 1015.7 |
| 20260901040755 | 86 | 188 | 1.0 | 5.0 | 0.00 | 0.00 | 0.00 | 59 | 1015.7 |
| 20260901040251 | 86 | 0.0 | 5.0 | 0.00 | 0.00 | 0.00 | 59 | 1015.7 | |
| 20260901035747 | 87 | 188 | 1.0 | 5.0 | 0.00 | 0.00 | 0.00 | 58 | 1015.7 |
| 20260901035245 | 87 | 188 | 1.0 | 9.0 | 0.00 | 0.00 | 0.00 | 57 | 1015.7 |
| 20260901034743 | 87 | 187 | 2.0 | 9.0 | 0.00 | 0.00 | 0.00 | 57 | 1015.7 |
| 20260901034241 | 87 | 175 | 1.0 | 8.0 | 0.00 | 0.00 | 0.00 | 56 | 1015.7 |
| 20260901033737 | 87 | 175 | 1.0 | 8.0 | 0.00 | 0.00 | 0.00 | 56 | 1015.6 |
| 20260901033235 | 87 | 160 | 1.0 | 7.0 | 0.00 | 0.00 | 0.00 | 55 | 1015.6 |
| 20260901032733 | 87 | 164 | 3.0 | 7.0 | 0.00 | 0.00 | 0.00 | 54 | 1015.5 |
| 20260901032231 | 87 | 167 | 3.0 | 5.0 | 0.00 | 0.00 | 0.00 | 53 | 1015.4 |
| 20260901031727 | 87 | 167 | 1.0 | 7.0 | 0.00 | 0.00 | 0.00 | 51 | 1015.4 |
| 20260901031225 | 87 | 167 | 1.0 | 7.0 | 0.00 | 0.00 | 0.00 | 50 | 1015.4 |
| 20260901030723 | 86 | 0.0 | 3.0 | 0.00 | 0.00 | 0.00 | 49 | 1015.3 | |
| 20260901030221 | 86 | 0.0 | 2.0 | 0.00 | 0.00 | 0.00 | 49 | 1015.3 | |
| 20260901025717 | 86 | 0.0 | 2.0 | 0.00 | 0.00 | 0.00 | 49 | 1015.1 | |
| 20260901025215 | 86 | 0.0 | 1.0 | 0.00 | 0.00 | 0.00 | 50 | 1015.0 | |
| 20260901024713 | 85 | 0.0 | 0.0 | 0.00 | 0.00 | 0.00 | 50 | 1014.9 | |
| 20260901024211 | 86 | 0.0 | 0.0 | 0.00 | 0.00 | 0.00 | 50 | 1015.0 | |
| 20260901023707 | 86 | 0.0 | 0.0 | 0.00 | 0.00 | 0.00 | 49 | 1015.0 | |
| 20260901023205 | 86 | 0.0 | 0.0 | 0.00 | 0.00 | 0.00 | 49 | 1014.9 | |
| 20260901022701 | 86 | 0.0 | 0.0 | 0.00 | 0.00 | 0.00 | 49 | 1014.8 | |
| 20260901022159 | 87 | 0.0 | 0.0 | 0.00 | 0.00 | 0.00 | 49 | 1014.8 | |
| 20260901021657 | 87 | 0.0 | 0.0 | 0.00 | 0.00 | 0.00 | 48 | 1014.7 | |
| 20260901021155 | 87 | 0.0 | 0.0 | 0.00 | 0.00 | 0.00 | 48 | 1014.6 | |
| 20260901020651 | 88 | 0.0 | 0.0 | 0.00 | 0.00 | 0.00 | 47 | 1014.6 | |
| 20260901020149 | 88 | 0.0 | 0.0 | 0.00 | 0.00 | 0.00 | 47 | 1014.5 | |
| 20260901015647 | 88 | 0.0 | 0.0 | 0.00 | 0.00 | 0.00 | 46 | 1014.4 | |
| 20260901015145 | 88 | 0.0 | 0.0 | 0.00 | 0.00 | 0.00 | 46 | 1014.4 | |
| 20260901014641 | 89 | 0.0 | 0.0 | 0.00 | 0.00 | 0.00 | 46 | 1014.3 | |
| 20260901014139 | 89 | 0.0 | 0.0 | 0.00 | 0.00 | 0.00 | 45 | 1014.3 | |
| 20260901013634 | 89 | 0.0 | 0.0 | 0.00 | 0.00 | 0.00 | 45 | 1014.3 | |
| 20260901013100 | 90 | 0.0 | 0.0 | 0.00 | 0.00 | 0.00 | 45 | 1014.2 | |
| 20260901012557 | 90 | 0.0 | 0.0 | 0.00 | 0.00 | 0.00 | 44 | 1014.2 | |
| 20260901012055 | 90 | 0.0 | 0.0 | 0.00 | 0.00 | 0.00 | 43 | 1014.2 | |
| 20260901011551 | 91 | 0.0 | 0.0 | 0.00 | 0.00 | 0.00 | 43 | 1014.1 | |
| 20260901011049 | 91 | 0.0 | 0.0 | 0.00 | 0.00 | 0.00 | 42 | 1014.1 | |
| 20260901010547 | 92 | 0.0 | 0.0 | 0.00 | 0.00 | 0.00 | 42 | 1014.1 | |
| 20260901010044 | 92 | 0.0 | 0.0 | 0.00 | 0.00 | 0.00 | 41 | 1014.1 | |
| 20260901005541 | 92 | 0.0 | 0.0 | 0.00 | 0.00 | 0.00 | 41 | 1014.0 | |
| 20260901005039 | 93 | 0.0 | 0.0 | 0.00 | 0.00 | 0.00 | 40 | 1014.0 | |
| 20260901004537 | 93 | 0.0 | 3.0 | 0.00 | 0.00 | 0.00 | 40 | 1014.0 | |
| 20260901004034 | 93 | 0.0 | 3.0 | 0.00 | 0.00 | 0.00 | 40 | 1014.0 | |
| 20260901003531 | 94 | 0.0 | 1.0 | 0.00 | 0.00 | 0.00 | 39 | 1014.0 | |
| 20260901003029 | 94 | 0.0 | 2.0 | 0.00 | 0.00 | 0.00 | 39 | 1014.0 | |
| 20260901002527 | 94 | 0.0 | 3.0 | 0.00 | 0.00 | 0.00 | 39 | 1014.0 | |
| 20260901002024 | 95 | 0.0 | 1.0 | 0.00 | 0.00 | 0.00 | 39 | 1013.9 | |
| 20260901001521 | 95 | 0.0 | 3.0 | 0.00 | 0.00 | 0.00 | 39 | 1013.9 | |
| 20260901001019 | 95 | 0.0 | 2.0 | 0.00 | 0.00 | 0.00 | 39 | 1013.9 | |
| 20260901000517 | 96 | 0.0 | 3.0 | 0.00 | 0.00 | 0.00 | 38 | 1013.8 | |
| 20260901000014 | 96 | 167 | 1.0 | 4.0 | 0.00 | 0.00 | 0.00 | 38 | 1013.9 |
| 20260831235511 | 97 | 0.0 | 5.0 | 0.00 | 0.00 | 0.00 | 38 | 1013.8 | |
| 20260831235009 | 97 | 167 | 1.0 | 5.0 | 0.00 | 0.00 | 0.00 | 37 | 1013.9 |
| 20260831234507 | 98 | 0.0 | 3.0 | 0.00 | 0.00 | 0.00 | 37 | 1013.8 | |
| 20260831234004 | 98 | 167 | 1.0 | 5.0 | 0.00 | 0.00 | 0.00 | 36 | 1013.8 |
| 20260831233501 | 98 | 0.0 | 3.0 | 0.00 | 0.00 | 0.00 | 37 | 1013.9 | |
| 20260831232959 | 98 | 167 | 1.0 | 3.0 | 0.00 | 0.00 | 0.00 | 36 | 1013.8 |
| 20260831232457 | 98 | 0.0 | 3.0 | 0.00 | 0.00 | 0.00 | 36 | 1013.9 | |
| 20260831231954 | 98 | 0.0 | 8.0 | 0.00 | 0.00 | 0.00 | 35 | 1013.9 | |
| 20260831231450 | 98 | 167 | 3.0 | 8.0 | 0.00 | 0.00 | 0.00 | 35 | 1013.9 |
| 20260831230949 | 98 | 0.0 | 3.0 | 0.00 | 0.00 | 0.00 | 35 | 1013.9 | |
| 20260831230445 | 98 | 167 | 1.0 | 6.0 | 0.00 | 0.00 | 0.00 | 35 | 1013.9 |
| 20260831225943 | 98 | 167 | 1.0 | 6.0 | 0.00 | 0.00 | 0.00 | 35 | 1013.9 |
| 20260831225440 | 98 | 1.0 | 8.0 | 0.00 | 0.00 | 0.00 | 35 | 1014.0 | |
| 20260831224938 | 98 | 167 | 1.0 | 8.0 | 0.00 | 0.00 | 0.00 | 35 | 1013.9 |
| 20260831224434 | 98 | 167 | 1.0 | 7.0 | 0.00 | 0.00 | 0.00 | 36 | 1014.0 |
| 20260831223933 | 98 | 0.0 | 7.0 | 0.00 | 0.00 | 0.00 | 36 | 1014.0 | |
| 20260831223430 | 98 | 167 | 2.0 | 5.0 | 0.00 | 0.00 | 0.00 | 36 | 1014.1 |
| 20260831222928 | 97 | 0.0 | 5.0 | 0.00 | 0.00 | 0.00 | 37 | 1014.1 | |
| 20260831222424 | 97 | 167 | 1.0 | 5.0 | 0.00 | 0.00 | 0.00 | 37 | 1014.2 |
| 20260831221923 | 97 | 0.0 | 5.0 | 0.00 | 0.00 | 0.00 | 38 | 1014.2 | |
| 20260831221420 | 98 | 167 | 1.0 | 7.0 | 0.00 | 0.00 | 0.00 | 38 | 1014.2 |
| 20260831220918 | 98 | 1.0 | 7.0 | 0.00 | 0.00 | 0.00 | 37 | 1014.2 | |
| 20260831220414 | 98 | 167 | 1.0 | 10.0 | 0.00 | 0.00 | 0.00 | 37 | 1014.2 |
| 20260831215913 | 97 | 167 | 2.0 | 10.0 | 0.00 | 0.00 | 0.00 | 38 | 1014.3 |
| 20260831215410 | 97 | 163 | 1.0 | 6.0 | 0.00 | 0.00 | 0.00 | 39 | 1014.3 |
| 20260831214908 | 96 | 0.0 | 7.0 | 0.00 | 0.00 | 0.00 | 39 | 1014.3 | |
| 20260831214404 | 96 | 163 | 1.0 | 7.0 | 0.00 | 0.00 | 0.00 | 38 | 1014.5 |
| 20260831213903 | 98 | 162 | 1.0 | 7.0 | 0.00 | 0.00 | 0.00 | 37 | 1014.5 |
| 20260831213400 | 99 | 162 | 1.0 | 7.0 | 0.00 | 0.00 | 0.00 | 37 | 1014.5 |
| 20260831212858 | 98 | 0.0 | 5.0 | 0.00 | 0.00 | 0.00 | 37 | 1014.5 | |
| 20260831212354 | 98 | 0.0 | 6.0 | 0.00 | 0.00 | 0.00 | 38 | 1014.6 | |
| 20260831211853 | 98 | 0.0 | 8.0 | 0.00 | 0.00 | 0.00 | 37 | 1014.8 | |
| 20260831211350 | 99 | 161 | 2.0 | 8.0 | 0.00 | 0.00 | 0.00 | 37 | 1014.9 |
| 20260831210848 | 99 | 169 | 1.0 | 6.0 | 0.00 | 0.00 | 0.00 | 37 | 1014.8 |
| 20260831210344 | 99 | 169 | 1.0 | 5.0 | 0.00 | 0.00 | 0.00 | 36 | 1014.9 |
| 20260831205842 | 99 | 170 | 1.0 | 5.0 | 0.00 | 0.00 | 0.00 | 37 | 1015.0 |
| 20260831205340 | 100 | 169 | 1.0 | 6.0 | 0.00 | 0.00 | 0.00 | 37 | 1015.1 |
| 20260831204837 | 99 | 1.0 | 6.0 | 0.00 | 0.00 | 0.00 | 36 | 1015.2 | |
| 20260831204334 | 99 | 170 | 1.0 | 8.0 | 0.00 | 0.00 | 0.00 | 38 | 1015.3 |
| 20260831203832 | 98 | 186 | 2.0 | 8.0 | 0.00 | 0.00 | 0.00 | 39 | 1015.4 |
| 20260831203330 | 98 | 0.0 | 2.0 | 0.00 | 0.00 | 0.00 | 40 | 1015.6 | |
| 20260831202827 | 98 | 0.0 | 4.0 | 0.00 | 0.00 | 0.00 | 39 | 1015.6 | |
| 20260831202324 | 98 | 194 | 1.0 | 5.0 | 0.00 | 0.00 | 0.00 | 40 | 1015.6 |
| 20260831201822 | 97 | 0.0 | 5.0 | 0.00 | 0.00 | 0.00 | 41 | 1015.7 | |
| 20260831201318 | 97 | 0.0 | 4.0 | 0.00 | 0.00 | 0.00 | 42 | 1015.8 | |
| 20260831200817 | 97 | 0.0 | 7.0 | 0.00 | 0.00 | 0.00 | 42 | 1015.9 | |
| 20260831200314 | 97 | 193 | 2.0 | 11.0 | 0.00 | 0.00 | 0.00 | 42 | 1016.0 |
| 20260831195812 | 97 | 192 | 5.0 | 11.0 | 0.00 | 0.00 | 0.00 | 41 | 1016.1 |
| 20260831195308 | 98 | 185 | 1.0 | 8.0 | 0.00 | 0.00 | 0.00 | 41 | 1016.0 |
| 20260831194807 | 98 | 181 | 3.0 | 8.0 | 0.00 | 0.00 | 0.00 | 41 | 1016.2 |
| 20260831194304 | 97 | 0.0 | 6.0 | 0.00 | 0.00 | 0.00 | 43 | 1016.2 | |
| 20260831193802 | 96 | 184 | 1.0 | 6.0 | 0.00 | 0.00 | 0.00 | 42 | 1016.2 |
| 20260831193258 | 96 | 183 | 1.0 | 9.0 | 0.00 | 0.00 | 0.00 | 43 | 1016.3 |
| 20260831192757 | 96 | 183 | 3.0 | 9.0 | 0.00 | 0.00 | 0.00 | 43 | 1016.3 |
| 20260831192254 | 96 | 0.0 | 5.0 | 0.00 | 0.00 | 0.00 | 43 | 1016.3 | |
| 20260831191752 | 96 | 172 | 1.0 | 7.0 | 0.00 | 0.00 | 0.00 | 43 | 1016.5 |
| 20260831191248 | 96 | 173 | 1.0 | 9.0 | 0.00 | 0.00 | 0.00 | 43 | 1016.6 |
| 20260831190747 | 97 | 164 | 3.0 | 7.0 | 0.00 | 0.00 | 0.00 | 42 | 1016.7 |
| 20260831190244 | 97 | 0.0 | 8.0 | 0.00 | 0.00 | 0.00 | 42 | 1016.8 | |
| 20260831185742 | 97 | 163 | 3.0 | 8.0 | 0.00 | 0.00 | 0.00 | 42 | 1016.8 |
| 20260831185238 | 97 | 0.0 | 5.0 | 0.00 | 0.00 | 0.00 | 44 | 1016.8 | |
| 20260831184736 | 97 | 0.0 | 6.0 | 0.00 | 0.00 | 0.00 | 44 | 1016.8 | |
| 20260831184234 | 97 | 175 | 2.0 | 6.0 | 0.00 | 0.00 | 0.00 | 43 | 1016.9 |
| 20260831183731 | 97 | 0.0 | 3.0 | 0.00 | 0.00 | 0.00 | 42 | 1016.9 | |
| 20260831183229 | 96 | 0.0 | 4.0 | 0.00 | 0.00 | 0.00 | 42 | 1016.9 | |
| 20260831182726 | 96 | 177 | 1.0 | 6.0 | 0.00 | 0.00 | 0.00 | 42 | 1017.0 |
| 20260831182224 | 95 | 0.0 | 6.0 | 0.00 | 0.00 | 0.00 | 44 | 1017.0 | |
| 20260831181721 | 95 | 177 | 2.0 | 7.0 | 0.00 | 0.00 | 0.00 | 42 | 1017.1 |
| 20260831181218 | 95 | 171 | 3.0 | 8.0 | 0.00 | 0.00 | 0.00 | 42 | 1017.2 |
| 20260831180716 | 94 | 0.0 | 5.0 | 0.00 | 0.00 | 0.00 | 43 | 1017.1 | |
| 20260831180214 | 94 | 0.0 | 6.0 | 0.00 | 0.00 | 0.00 | 46 | 1017.2 | |
| 20260831175711 | 94 | 188 | 3.0 | 7.0 | 0.00 | 0.00 | 0.00 | 45 | 1017.4 |
| 20260831175208 | 94 | 197 | 2.0 | 7.0 | 0.00 | 0.00 | 0.00 | 45 | 1017.4 |
| 20260831174706 | 94 | 196 | 1.0 | 4.0 | 0.00 | 0.00 | 0.00 | 47 | 1017.6 |
| 20260831174202 | 94 | 0.0 | 5.0 | 0.00 | 0.00 | 0.00 | 47 | 1017.6 | |
| 20260831173701 | 93 | 196 | 2.0 | 7.0 | 0.00 | 0.00 | 0.00 | 46 | 1017.6 |
| 20260831173158 | 93 | 196 | 2.0 | 7.0 | 0.00 | 0.00 | 0.00 | 48 | 1017.8 |
| 20260831172656 | 93 | 197 | 1.0 | 6.0 | 0.00 | 0.00 | 0.00 | 49 | 1017.7 |
| 20260831172152 | 92 | 198 | 1.0 | 7.0 | 0.00 | 0.00 | 0.00 | 49 | 1017.8 |
| 20260831171651 | 92 | 198 | 2.0 | 7.0 | 0.00 | 0.00 | 0.00 | 49 | 1017.9 |
| 20260831171148 | 92 | 198 | 1.0 | 9.0 | 0.00 | 0.00 | 0.00 | 51 | 1017.9 |
| 20260831170646 | 92 | 199 | 2.0 | 9.0 | 0.00 | 0.00 | 0.00 | 52 | 1018.0 |
| 20260831170142 | 92 | 212 | 2.0 | 6.0 | 0.00 | 0.00 | 0.00 | 53 | 1018.0 |
| 20260831165641 | 92 | 212 | 2.0 | 6.0 | 0.00 | 0.00 | 0.00 | 52 | 1018.0 |
| 20260831165138 | 91 | 213 | 1.0 | 4.0 | 0.00 | 0.00 | 0.00 | 54 | 1017.9 |
| 20260831164635 | 91 | 0.0 | 7.0 | 0.00 | 0.00 | 0.00 | 56 | 1018.0 | |
| 20260831164132 | 91 | 213 | 2.0 | 7.0 | 0.00 | 0.00 | 0.00 | 57 | 1018.1 |
| 20260831163630 | 91 | 213 | 1.0 | 6.0 | 0.00 | 0.00 | 0.00 | 56 | 1017.9 |
| 20260831163128 | 90 | 213 | 1.0 | 6.0 | 0.00 | 0.00 | 0.00 | 57 | 1018.0 |